| time (UTC) | temp F | wind direction | speed MPH | gust MPH | rain 1hr in | rain 24hr in | rain mn in | humidity % | barometer mb |
| 20260902155043 | 93 | 261 | 3.0 | 4.0 | 0.00 | 0.00 | 0.00 | 60 | 1016.5 |
| 20260902154538 | 92 | 271 | 0.0 | 4.0 | 0.00 | 0.00 | 0.00 | 63 | 1016.6 |
| 20260902154033 | 90 | 185 | 2.0 | 3.0 | 0.00 | 0.00 | 0.00 | 64 | 1016.8 |
| 20260902153531 | 90 | 277 | 2.0 | 7.0 | 0.00 | 0.00 | 0.00 | 65 | 1016.7 |
| 20260902153027 | 90 | 258 | 3.0 | 6.0 | 0.00 | 0.00 | 0.00 | 65 | 1016.7 |
| 20260902152524 | 90 | 156 | 0.0 | 4.0 | 0.00 | 0.00 | 0.00 | 66 | 1016.6 |
| 20260902152019 | 90 | 248 | 0.0 | 5.0 | 0.00 | 0.00 | 0.00 | 66 | 1016.7 |
| 20260902151514 | 89 | 278 | 4.0 | 4.0 | 0.00 | 0.00 | 0.00 | 67 | 1016.8 |
| 20260902151014 | 89 | 250 | 0.0 | 5.0 | 0.00 | 0.00 | 0.00 | 70 | 1017.0 |
| 20260902150509 | 89 | 173 | 4.0 | 5.0 | 0.00 | 0.00 | 0.00 | 69 | 1016.8 |
| 20260902150004 | 89 | 349 | 3.0 | 3.0 | 0.00 | 0.00 | 0.00 | 69 | 1016.8 |
| 20260902145459 | 89 | 266 | 2.0 | 4.0 | 0.00 | 0.00 | 0.00 | 70 | 1016.7 |
| 20260902144953 | 87 | 252 | 1.0 | 4.0 | 0.00 | 0.00 | 0.00 | 71 | 1016.8 |
| 20260902144450 | 87 | 9 | 0.0 | 5.0 | 0.00 | 0.00 | 0.00 | 73 | 1016.7 |
| 20260902143944 | 87 | 84 | 0.0 | 5.0 | 0.00 | 0.00 | 0.00 | 73 | 1016.8 |
| 20260902143440 | 87 | 243 | 2.0 | 6.0 | 0.00 | 0.00 | 0.00 | 74 | 1016.9 |
| 20260902142935 | 86 | 156 | 0.0 | 4.0 | 0.00 | 0.00 | 0.00 | 74 | 1016.9 |
| 20260902142431 | 85 | 204 | 2.0 | 7.0 | 0.00 | 0.00 | 0.00 | 77 | 1016.8 |
| 20260902141926 | 86 | 254 | 0.0 | 4.0 | 0.00 | 0.00 | 0.00 | 76 | 1016.7 |
| 20260902141421 | 85 | 261 | 3.0 | 4.0 | 0.00 | 0.00 | 0.00 | 77 | 1016.9 |
| 20260902140920 | 85 | 242 | 4.0 | 6.0 | 0.00 | 0.00 | 0.00 | 77 | 1016.9 |
| 20260902140416 | 84 | 255 | 1.0 | 3.0 | 0.00 | 0.00 | 0.00 | 79 | 1016.8 |
| 20260902135915 | 84 | 251 | 3.0 | 4.0 | 0.00 | 0.00 | 0.00 | 80 | 1016.9 |
| 20260902135412 | 82 | 245 | 2.0 | 6.0 | 0.00 | 0.00 | 0.00 | 82 | 1016.7 |
| 20260902134910 | 83 | 251 | 2.0 | 4.0 | 0.00 | 0.00 | 0.00 | 81 | 1016.6 |
| 20260902134407 | 83 | 190 | 3.0 | 6.0 | 0.00 | 0.00 | 0.00 | 82 | 1016.6 |
| 20260902133901 | 83 | 275 | 3.0 | 5.0 | 0.00 | 0.00 | 0.00 | 81 | 1016.6 |
| 20260902133401 | 83 | 255 | 1.0 | 4.0 | 0.00 | 0.00 | 0.00 | 81 | 1016.7 |
| 20260902132856 | 82 | 277 | 2.0 | 4.0 | 0.00 | 0.00 | 0.00 | 82 | 1016.7 |
| 20260902132351 | 82 | 324 | 1.0 | 3.0 | 0.00 | 0.00 | 0.00 | 83 | 1016.7 |
| 20260902131846 | 81 | 201 | 0.0 | 4.0 | 0.00 | 0.00 | 0.00 | 84 | 1016.5 |
| 20260902131343 | 81 | 228 | 2.0 | 3.0 | 0.00 | 0.00 | 0.00 | 85 | 1016.5 |
| 20260902130842 | 80 | 275 | 1.0 | 4.0 | 0.00 | 0.00 | 0.00 | 85 | 1016.4 |
| 20260902130338 | 80 | 273 | 2.0 | 3.0 | 0.00 | 0.00 | 0.00 | 86 | 1016.5 |
| 20260902125833 | 79 | 265 | 0.0 | 3.0 | 0.00 | 0.00 | 0.00 | 88 | 1016.2 |
| 20260902125329 | 78 | 210 | 3.0 | 3.0 | 0.00 | 0.00 | 0.00 | 89 | 1016.2 |
| 20260902124825 | 77 | 220 | 1.0 | 2.0 | 0.00 | 0.00 | 0.00 | 91 | 1016.2 |
| 20260902124321 | 77 | 299 | 0.0 | 2.0 | 0.00 | 0.00 | 0.00 | 92 | 1016.2 |
| 20260902123815 | 76 | 306 | 0.0 | 1.0 | 0.00 | 0.00 | 0.00 | 92 | 1016.0 |
| 20260902123312 | 76 | 284 | 0.0 | 1.0 | 0.00 | 0.00 | 0.00 | 92 | 1016.2 |
| 20260902122810 | 76 | 269 | 0.0 | 2.0 | 0.00 | 0.00 | 0.00 | 92 | 1015.9 |
| 20260902122306 | 76 | 235 | 0.0 | 1.0 | 0.00 | 0.00 | 0.00 | 92 | 1016.1 |
| 20260902121801 | 77 | 221 | 1.0 | 2.0 | 0.00 | 0.00 | 0.00 | 92 | 1016.2 |
| 20260902121256 | 77 | 272 | 0.0 | 2.0 | 0.00 | 0.00 | 0.00 | 91 | 1015.9 |
| 20260902120751 | 77 | 255 | 0.0 | 2.0 | 0.00 | 0.00 | 0.00 | 91 | 1016.2 |
| 20260902120247 | 77 | 242 | 1.0 | 3.0 | 0.00 | 0.00 | 0.00 | 91 | 1015.8 |
| 20260902115742 | 77 | 246 | 1.0 | 3.0 | 0.00 | 0.00 | 0.00 | 91 | 1015.9 |
| 20260902115238 | 77 | 238 | 0.0 | 3.0 | 0.00 | 0.00 | 0.00 | 90 | 1015.8 |
| 20260902114734 | 77 | 268 | 0.0 | 3.0 | 0.00 | 0.00 | 0.00 | 90 | 1016.0 |
| 20260902114230 | 77 | 198 | 1.0 | 3.0 | 0.00 | 0.00 | 0.00 | 90 | 1016.1 |
| 20260902113724 | 77 | 241 | 1.0 | 3.0 | 0.00 | 0.00 | 0.00 | 90 | 1016.0 |
| 20260902113219 | 77 | 250 | 1.0 | 3.0 | 0.00 | 0.00 | 0.00 | 89 | 1016.0 |
| 20260902112719 | 77 | 240 | 0.0 | 3.0 | 0.00 | 0.00 | 0.00 | 89 | 1015.9 |
| 20260902112216 | 77 | 273 | 2.0 | 2.0 | 0.00 | 0.00 | 0.00 | 89 | 1015.9 |
| 20260902111711 | 77 | 228 | 0.0 | 2.0 | 0.00 | 0.00 | 0.00 | 88 | 1015.8 |
| 20260902111207 | 77 | 210 | 1.0 | 2.0 | 0.00 | 0.00 | 0.00 | 88 | 1015.8 |
| 20260902110703 | 77 | 267 | 1.0 | 3.0 | 0.00 | 0.00 | 0.00 | 87 | 1015.8 |
| 20260902110158 | 77 | 243 | 1.0 | 2.0 | 0.00 | 0.00 | 0.00 | 87 | 1015.6 |
| 20260902105658 | 77 | 315 | 0.0 | 2.0 | 0.00 | 0.00 | 0.00 | 87 | 1015.6 |
| 20260902105154 | 77 | 225 | 1.0 | 2.0 | 0.00 | 0.00 | 0.00 | 87 | 1015.5 |
| 20260902104649 | 78 | 256 | 1.0 | 3.0 | 0.00 | 0.00 | 0.00 | 86 | 1015.4 |
| 20260902104144 | 78 | 237 | 3.0 | 4.0 | 0.00 | 0.00 | 0.00 | 86 | 1015.7 |
| 20260902103643 | 77 | 257 | 2.0 | 3.0 | 0.00 | 0.00 | 0.00 | 86 | 1015.5 |
| 20260902103138 | 78 | 234 | 2.0 | 3.0 | 0.00 | 0.00 | 0.00 | 85 | 1015.6 |
| 20260902102635 | 78 | 233 | 2.0 | 3.0 | 0.00 | 0.00 | 0.00 | 85 | 1015.5 |
| 20260902102132 | 78 | 251 | 2.0 | 2.0 | 0.00 | 0.00 | 0.00 | 84 | 1015.3 |
| 20260902101627 | 78 | 277 | 1.0 | 1.0 | 0.00 | 0.00 | 0.00 | 84 | 1015.6 |
| 20260902101126 | 78 | 293 | 0.0 | 3.0 | 0.00 | 0.00 | 0.00 | 83 | 1015.6 |
| 20260902100621 | 78 | 232 | 2.0 | 2.0 | 0.00 | 0.00 | 0.00 | 83 | 1015.6 |
| 20260902100116 | 78 | 239 | 2.0 | 3.0 | 0.00 | 0.00 | 0.00 | 83 | 1015.4 |
| 20260902095615 | 78 | 287 | 0.0 | 3.0 | 0.00 | 0.00 | 0.00 | 83 | 1015.4 |
| 20260902095114 | 78 | 245 | 2.0 | 4.0 | 0.00 | 0.00 | 0.00 | 83 | 1015.4 |
| 20260902094609 | 78 | 244 | 1.0 | 4.0 | 0.00 | 0.00 | 0.00 | 83 | 1015.3 |
| 20260902094106 | 78 | 247 | 2.0 | 3.0 | 0.00 | 0.00 | 0.00 | 83 | 1015.6 |
| 20260902093600 | 78 | 195 | 2.0 | 2.0 | 0.00 | 0.00 | 0.00 | 83 | 1015.6 |
| 20260902093054 | 78 | 252 | 1.0 | 2.0 | 0.00 | 0.00 | 0.00 | 83 | 1015.6 |
| 20260902092549 | 78 | 306 | 1.0 | 3.0 | 0.00 | 0.00 | 0.00 | 82 | 1015.6 |
| 20260902092044 | 78 | 274 | 1.0 | 3.0 | 0.00 | 0.00 | 0.00 | 82 | 1015.6 |
| 20260902091539 | 78 | 280 | 1.0 | 3.0 | 0.00 | 0.00 | 0.00 | 82 | 1015.7 |
| 20260902091036 | 78 | 250 | 1.0 | 4.0 | 0.00 | 0.00 | 0.00 | 82 | 1015.6 |
| 20260902090526 | 78 | 241 | 1.0 | 3.0 | 0.00 | 0.00 | 0.00 | 81 | 1015.8 |
| 20260902090024 | 79 | 245 | 2.0 | 3.0 | 0.00 | 0.00 | 0.00 | 81 | 1015.8 |
| 20260902085518 | 79 | 249 | 1.0 | 3.0 | 0.00 | 0.00 | 0.00 | 81 | 1015.7 |
| 20260902085014 | 79 | 237 | 0.0 | 3.0 | 0.00 | 0.00 | 0.00 | 81 | 1015.7 |
| 20260902084510 | 78 | 251 | 2.0 | 3.0 | 0.00 | 0.00 | 0.00 | 81 | 1015.7 |
| 20260902084005 | 78 | 258 | 0.0 | 2.0 | 0.00 | 0.00 | 0.00 | 82 | 1015.6 |
| 20260902083501 | 78 | 235 | 0.0 | 2.0 | 0.00 | 0.00 | 0.00 | 82 | 1016.0 |
| 20260902082955 | 78 | 243 | 1.0 | 2.0 | 0.00 | 0.00 | 0.00 | 81 | 1015.9 |
| 20260902082451 | 78 | 239 | 2.0 | 3.0 | 0.00 | 0.00 | 0.00 | 81 | 1016.0 |
| 20260902081947 | 78 | 258 | 0.0 | 2.0 | 0.00 | 0.00 | 0.00 | 81 | 1016.0 |
| 20260902081444 | 78 | 233 | 0.0 | 3.0 | 0.00 | 0.00 | 0.00 | 81 | 1016.2 |
| 20260902080938 | 78 | 238 | 2.0 | 3.0 | 0.00 | 0.00 | 0.00 | 81 | 1016.1 |
| 20260902080434 | 78 | 253 | 2.0 | 3.0 | 0.00 | 0.00 | 0.00 | 81 | 1015.9 |
| 20260902075933 | 78 | 253 | 2.0 | 3.0 | 0.00 | 0.00 | 0.00 | 81 | 1016.1 |
| 20260902075430 | 78 | 228 | 1.0 | 2.0 | 0.00 | 0.00 | 0.00 | 81 | 1016.1 |
| 20260902074925 | 78 | 284 | 0.0 | 2.0 | 0.00 | 0.00 | 0.00 | 80 | 1016.0 |
| 20260902074420 | 79 | 278 | 1.0 | 2.0 | 0.00 | 0.00 | 0.00 | 80 | 1015.9 |
| 20260902073915 | 79 | 293 | 0.0 | 2.0 | 0.00 | 0.00 | 0.00 | 80 | 1016.3 |
| 20260902073411 | 79 | 269 | 0.0 | 2.0 | 0.00 | 0.00 | 0.00 | 80 | 1016.2 |
| 20260902072907 | 79 | 294 | 0.0 | 1.0 | 0.00 | 0.00 | 0.00 | 80 | 1016.2 |
| 20260902072403 | 79 | 235 | 0.0 | 3.0 | 0.00 | 0.00 | 0.00 | 79 | 1016.2 |
| 20260902071859 | 79 | 297 | 0.0 | 2.0 | 0.00 | 0.00 | 0.00 | 78 | 1016.3 |
| 20260902071358 | 80 | 210 | 1.0 | 2.0 | 0.00 | 0.00 | 0.00 | 78 | 1016.1 |
| 20260902070855 | 80 | 261 | 1.0 | 2.0 | 0.00 | 0.00 | 0.00 | 78 | 1016.1 |
| 20260902070350 | 80 | 246 | 2.0 | 2.0 | 0.00 | 0.00 | 0.00 | 77 | 1016.1 |
| 20260902065848 | 80 | 242 | 2.0 | 3.0 | 0.00 | 0.00 | 0.00 | 77 | 1015.9 |
| 20260902065344 | 80 | 235 | 0.0 | 2.0 | 0.00 | 0.00 | 0.00 | 77 | 1016.1 |
| 20260902064839 | 80 | 251 | 1.0 | 2.0 | 0.00 | 0.00 | 0.00 | 77 | 1016.1 |
| 20260902064335 | 80 | 245 | 0.0 | 2.0 | 0.00 | 0.00 | 0.00 | 77 | 1016.0 |
| 20260902063831 | 80 | 309 | 0.0 | 3.0 | 0.00 | 0.00 | 0.00 | 77 | 1016.1 |
| 20260902063331 | 80 | 273 | 0.0 | 2.0 | 0.00 | 0.00 | 0.00 | 76 | 1016.2 |
| 20260902062825 | 81 | 254 | 0.0 | 3.0 | 0.00 | 0.00 | 0.00 | 76 | 1016.3 |
| 20260902062320 | 81 | 260 | 0.0 | 2.0 | 0.00 | 0.00 | 0.00 | 75 | 1016.1 |
| 20260902061819 | 81 | 283 | 0.0 | 2.0 | 0.00 | 0.00 | 0.00 | 75 | 1016.1 |
| 20260902061315 | 80 | 225 | 2.0 | 3.0 | 0.00 | 0.00 | 0.00 | 75 | 1016.2 |
| 20260902060811 | 80 | 218 | 2.0 | 2.0 | 0.00 | 0.00 | 0.00 | 76 | 1016.2 |
| 20260902060307 | 80 | 322 | 0.0 | 1.0 | 0.00 | 0.00 | 0.00 | 76 | 1016.1 |
| 20260902055802 | 80 | 218 | 0.0 | 2.0 | 0.00 | 0.00 | 0.00 | 76 | 1016.3 |
| 20260902055258 | 80 | 304 | 0.0 | 2.0 | 0.00 | 0.00 | 0.00 | 76 | 1016.1 |
| 20260902054753 | 81 | 246 | 0.0 | 2.0 | 0.00 | 0.00 | 0.00 | 75 | 1016.1 |
| 20260902054248 | 81 | 197 | 0.0 | 2.0 | 0.00 | 0.00 | 0.00 | 75 | 1016.1 |
| 20260902053743 | 81 | 299 | 0.0 | 1.0 | 0.00 | 0.00 | 0.00 | 75 | 1016.4 |
| 20260902053242 | 81 | 269 | 0.0 | 2.0 | 0.00 | 0.00 | 0.00 | 74 | 1016.2 |
| 20260902052737 | 82 | 277 | 2.0 | 2.0 | 0.00 | 0.00 | 0.00 | 74 | 1016.3 |
| 20260902052232 | 82 | 258 | 1.0 | 2.0 | 0.00 | 0.00 | 0.00 | 74 | 1016.2 |
| 20260902051732 | 82 | 285 | 0.0 | 2.0 | 0.00 | 0.00 | 0.00 | 74 | 1016.3 |
| 20260902051226 | 82 | 303 | 0.0 | 1.0 | 0.00 | 0.00 | 0.00 | 73 | 1016.1 |
| 20260902050721 | 82 | 137 | 0.0 | 0.0 | 0.00 | 0.00 | 0.00 | 73 | 1016.2 |
| 20260902050216 | 82 | 193 | 0.0 | 3.0 | 0.00 | 0.00 | 0.00 | 72 | 1016.3 |
| 20260902045711 | 82 | 269 | 0.0 | 1.0 | 0.00 | 0.00 | 0.00 | 72 | 1016.3 |
| 20260902045207 | 83 | 195 | 0.0 | 2.0 | 0.00 | 0.00 | 0.00 | 72 | 1016.4 |
| 20260902044702 | 82 | 124 | 0.0 | 1.0 | 0.00 | 0.00 | 0.00 | 72 | 1016.1 |
| 20260902044158 | 83 | 253 | 0.0 | 2.0 | 0.00 | 0.00 | 0.00 | 72 | 1016.2 |
| 20260902043653 | 83 | 169 | 0.0 | 3.0 | 0.00 | 0.00 | 0.00 | 71 | 1016.3 |
| 20260902043148 | 83 | 238 | 1.0 | 3.0 | 0.00 | 0.00 | 0.00 | 70 | 1016.0 |
| 20260902042647 | 83 | 216 | 0.0 | 3.0 | 0.00 | 0.00 | 0.00 | 70 | 1016.1 |
| 20260902042143 | 83 | 22 | 0.0 | 1.0 | 0.00 | 0.00 | 0.00 | 70 | 1016.0 |
| 20260902041642 | 84 | 226 | 0.0 | 2.0 | 0.00 | 0.00 | 0.00 | 70 | 1016.1 |
| 20260902041137 | 84 | 199 | 1.0 | 3.0 | 0.00 | 0.00 | 0.00 | 69 | 1016.0 |
| 20260902040636 | 84 | 255 | 0.0 | 1.0 | 0.00 | 0.00 | 0.00 | 69 | 1015.9 |
| 20260902040132 | 84 | 235 | 0.0 | 2.0 | 0.00 | 0.00 | 0.00 | 69 | 1016.0 |
| 20260902035630 | 84 | 89 | 0.0 | 2.0 | 0.00 | 0.00 | 0.00 | 68 | 1015.9 |
| 20260902035126 | 84 | 308 | 0.0 | 3.0 | 0.00 | 0.00 | 0.00 | 68 | 1015.9 |
| 20260902034625 | 85 | 264 | 1.0 | 2.0 | 0.00 | 0.00 | 0.00 | 67 | 1015.6 |
| 20260902034119 | 85 | 268 | 0.0 | 3.0 | 0.00 | 0.00 | 0.00 | 67 | 1015.6 |
| 20260902033618 | 85 | 219 | 2.0 | 2.0 | 0.00 | 0.00 | 0.00 | 67 | 1015.6 |
| 20260902033114 | 85 | 68 | 0.0 | 3.0 | 0.00 | 0.00 | 0.00 | 67 | 1015.4 |
| 20260902032612 | 86 | 296 | 0.0 | 3.0 | 0.00 | 0.00 | 0.00 | 66 | 1015.4 |
| 20260902032106 | 86 | 113 | 2.0 | 4.0 | 0.00 | 0.00 | 0.00 | 65 | 1015.4 |
| 20260902031601 | 86 | 149 | 3.0 | 3.0 | 0.00 | 0.00 | 0.00 | 65 | 1015.1 |
| 20260902031057 | 86 | 213 | 0.0 | 2.0 | 0.00 | 0.00 | 0.00 | 64 | 1015.3 |
| 20260902030557 | 86 | 147 | 0.0 | 2.0 | 0.00 | 0.00 | 0.00 | 64 | 1015.3 |
| 20260902030051 | 87 | 158 | 1.0 | 2.0 | 0.00 | 0.00 | 0.00 | 63 | 1014.9 |
| 20260902025546 | 87 | 152 | 4.0 | 7.0 | 0.00 | 0.00 | 0.00 | 63 | 1014.6 |
| 20260902025041 | 87 | 122 | 3.0 | 4.0 | 0.00 | 0.00 | 0.00 | 62 | 1014.9 |
| 20260902024537 | 87 | 124 | 1.0 | 2.0 | 0.00 | 0.00 | 0.00 | 62 | 1014.6 |
| 20260902024037 | 87 | 277 | 0.0 | 1.0 | 0.00 | 0.00 | 0.00 | 62 | 1014.5 |
| 20260902023532 | 87 | 180 | 0.0 | 3.0 | 0.00 | 0.00 | 0.00 | 62 | 1014.7 |
| 20260902023027 | 87 | 245 | 0.0 | 1.0 | 0.00 | 0.00 | 0.00 | 61 | 1014.6 |
| 20260902022522 | 87 | 213 | 1.0 | 3.0 | 0.00 | 0.00 | 0.00 | 61 | 1014.5 |
| 20260902022018 | 88 | 104 | 0.0 | 2.0 | 0.00 | 0.00 | 0.00 | 60 | 1014.1 |
| 20260902021513 | 88 | 160 | 1.0 | 3.0 | 0.00 | 0.00 | 0.00 | 60 | 1014.3 |
| 20260902021008 | 88 | 122 | 0.0 | 2.0 | 0.00 | 0.00 | 0.00 | 60 | 1014.0 |
| 20260902020504 | 88 | 156 | 3.0 | 3.0 | 0.00 | 0.00 | 0.00 | 59 | 1014.0 |
| 20260902015959 | 88 | 113 | 0.0 | 2.0 | 0.00 | 0.00 | 0.00 | 59 | 1014.0 |
| 20260902015455 | 88 | 6 | 0.0 | 2.0 | 0.00 | 0.00 | 0.00 | 59 | 1013.9 |
| 20260902014950 | 89 | 141 | 2.0 | 2.0 | 0.00 | 0.00 | 0.00 | 58 | 1014.0 |
| 20260902014447 | 89 | 172 | 1.0 | 3.0 | 0.00 | 0.00 | 0.00 | 57 | 1013.9 |
| 20260902013947 | 89 | 248 | 0.0 | 2.0 | 0.00 | 0.00 | 0.00 | 56 | 1014.0 |
| 20260902013441 | 90 | 155 | 1.0 | 2.0 | 0.00 | 0.00 | 0.00 | 56 | 1013.7 |
| 20260902012936 | 90 | 127 | 2.0 | 5.0 | 0.00 | 0.00 | 0.00 | 55 | 1013.9 |
| 20260902012432 | 90 | 187 | 0.0 | 2.0 | 0.00 | 0.00 | 0.00 | 55 | 1013.7 |
| 20260902011927 | 90 | 109 | 0.0 | 3.0 | 0.00 | 0.00 | 0.00 | 54 | 1013.9 |
| 20260902011423 | 91 | 137 | 2.0 | 4.0 | 0.00 | 0.00 | 0.00 | 54 | 1013.6 |
| 20260902010922 | 91 | 105 | 2.0 | 6.0 | 0.00 | 0.00 | 0.00 | 53 | 1013.5 |
| 20260902010417 | 91 | 161 | 2.0 | 4.0 | 0.00 | 0.00 | 0.00 | 52 | 1013.5 |
| 20260902005916 | 92 | 142 | 4.0 | 5.0 | 0.00 | 0.00 | 0.00 | 51 | 1013.5 |
| 20260902005415 | 92 | 123 | 3.0 | 4.0 | 0.00 | 0.00 | 0.00 | 50 | 1013.3 |
| 20260902004912 | 93 | 102 | 3.0 | 7.0 | 0.00 | 0.00 | 0.00 | 50 | 1013.3 |
| 20260902004411 | 93 | 104 | 0.0 | 4.0 | 0.00 | 0.00 | 0.00 | 49 | 1013.5 |
| 20260902003906 | 93 | 105 | 3.0 | 5.0 | 0.00 | 0.00 | 0.00 | 48 | 1013.3 |
| 20260902003401 | 94 | 114 | 0.0 | 5.0 | 0.00 | 0.00 | 0.00 | 48 | 1013.4 |
| 20260902002857 | 94 | 115 | 3.0 | 6.0 | 0.00 | 0.00 | 0.00 | 47 | 1013.5 |
| 20260902002356 | 94 | 135 | 0.0 | 4.0 | 0.00 | 0.00 | 0.00 | 47 | 1013.5 |
| 20260902001851 | 95 | 166 | 2.0 | 4.0 | 0.00 | 0.00 | 0.00 | 47 | 1013.5 |
| 20260902001346 | 95 | 94 | 3.0 | 3.0 | 0.00 | 0.00 | 0.00 | 47 | 1013.6 |
| 20260902000841 | 95 | 123 | 4.0 | 10.0 | 0.00 | 0.00 | 0.00 | 46 | 1013.4 |
| 20260902000337 | 95 | 164 | 2.0 | 8.0 | 0.00 | 0.00 | 0.00 | 47 | 1013.6 |
| 20260901235832 | 95 | 126 | 4.0 | 6.0 | 0.00 | 0.00 | 0.00 | 46 | 1013.6 |
| 20260901235331 | 96 | 135 | 3.0 | 4.0 | 0.00 | 0.00 | 0.00 | 46 | 1013.5 |
| 20260901234826 | 96 | 114 | 1.0 | 5.0 | 0.00 | 0.00 | 0.00 | 46 | 1013.7 |
| 20260901234322 | 96 | 133 | 3.0 | 5.0 | 0.00 | 0.00 | 0.00 | 46 | 1013.6 |
| 20260901233815 | 96 | 95 | 3.0 | 5.0 | 0.00 | 0.00 | 0.00 | 46 | 1013.4 |
| 20260901233311 | 96 | 103 | 3.0 | 6.0 | 0.00 | 0.00 | 0.00 | 46 | 1013.5 |
| 20260901232806 | 96 | 138 | 4.0 | 8.0 | 0.00 | 0.00 | 0.00 | 46 | 1013.4 |
| 20260901232255 | 96 | 134 | 5.0 | 7.0 | 0.00 | 0.00 | 0.00 | 46 | 1013.3 |
| 20260901231751 | 96 | 120 | 4.0 | 10.0 | 0.00 | 0.00 | 0.00 | 46 | 1013.5 |
| 20260901231242 | 97 | 175 | 2.0 | 7.0 | 0.00 | 0.00 | 0.00 | 46 | 1013.2 |
| 20260901230738 | 97 | 101 | 5.0 | 6.0 | 0.00 | 0.00 | 0.00 | 45 | 1013.3 |
| 20260901230237 | 100 | 212 | 1.0 | 3.0 | 0.00 | 0.00 | 0.00 | 39 | 1013.4 |
| 20260901225733 | 99 | 294 | 3.0 | 4.0 | 0.00 | 0.00 | 0.00 | 40 | 1013.4 |
| 20260901225227 | 100 | 314 | 5.0 | 6.0 | 0.00 | 0.00 | 0.00 | 39 | 1013.3 |
| 20260901224723 | 102 | 248 | 2.0 | 4.0 | 0.00 | 0.00 | 0.00 | 38 | 1013.3 |
| 20260901224219 | 101 | 308 | 2.0 | 3.0 | 0.00 | 0.00 | 0.00 | 39 | 1013.4 |
| 20260901223714 | 99 | 244 | 3.0 | 5.0 | 0.00 | 0.00 | 0.00 | 40 | 1013.3 |
| 20260901223209 | 98 | 210 | 2.0 | 3.0 | 0.00 | 0.00 | 0.00 | 41 | 1013.5 |
| 20260901222706 | 98 | 92 | 2.0 | 3.0 | 0.00 | 0.00 | 0.00 | 41 | 1013.5 |
| 20260901222202 | 98 | 120 | 0.0 | 2.0 | 0.00 | 0.00 | 0.00 | 41 | 1013.4 |
| 20260901221657 | 98 | 334 | 1.0 | 2.0 | 0.00 | 0.00 | 0.00 | 41 | 1013.3 |
| 20260901221153 | 98 | 111 | 3.0 | 5.0 | 0.00 | 0.00 | 0.00 | 42 | 1013.3 |
| 20260901220652 | 97 | 133 | 2.0 | 6.0 | 0.00 | 0.00 | 0.00 | 42 | 1013.5 |
| 20260901220152 | 98 | 142 | 2.0 | 3.0 | 0.00 | 0.00 | 0.00 | 41 | 1013.6 |
| 20260901215650 | 97 | 74 | 2.0 | 4.0 | 0.00 | 0.00 | 0.00 | 43 | 1013.5 |
| 20260901215145 | 98 | 108 | 6.0 | 6.0 | 0.00 | 0.00 | 0.00 | 41 | 1013.4 |
| 20260901214642 | 99 | 55 | 0.0 | 5.0 | 0.00 | 0.00 | 0.00 | 41 | 1013.5 |
| 20260901214136 | 101 | 279 | 2.0 | 4.0 | 0.00 | 0.00 | 0.00 | 39 | 1013.5 |
| 20260901213631 | 99 | 93 | 4.0 | 6.0 | 0.00 | 0.00 | 0.00 | 43 | 1013.4 |
| 20260901213126 | 100 | 110 | 3.0 | 4.0 | 0.00 | 0.00 | 0.00 | 40 | 1013.6 |
| 20260901212625 | 100 | 253 | 2.0 | 5.0 | 0.00 | 0.00 | 0.00 | 40 | 1013.3 |
| 20260901212122 | 99 | 195 | 1.0 | 3.0 | 0.00 | 0.00 | 0.00 | 40 | 1013.5 |
| 20260901211616 | 101 | 281 | 2.0 | 3.0 | 0.00 | 0.00 | 0.00 | 40 | 1013.9 |
| 20260901211113 | 99 | 283 | 2.0 | 3.0 | 0.00 | 0.00 | 0.00 | 41 | 1013.8 |
| 20260901210608 | 100 | 166 | 0.0 | 4.0 | 0.00 | 0.00 | 0.00 | 40 | 1013.8 |
| 20260901210104 | 98 | 291 | 3.0 | 5.0 | 0.00 | 0.00 | 0.00 | 40 | 1014.0 |
| 20260901205559 | 97 | 321 | 4.0 | 5.0 | 0.00 | 0.00 | 0.00 | 42 | 1013.9 |
| 20260901205053 | 97 | 101 | 4.0 | 4.0 | 0.00 | 0.00 | 0.00 | 44 | 1014.1 |
| 20260901204550 | 99 | 119 | 5.0 | 5.0 | 0.00 | 0.00 | 0.00 | 42 | 1014.0 |
| 20260901204044 | 100 | 167 | 2.0 | 5.0 | 0.00 | 0.00 | 0.00 | 41 | 1014.2 |
| 20260901203539 | 100 | 143 | 3.0 | 6.0 | 0.00 | 0.00 | 0.00 | 40 | 1014.5 |
| 20260901203034 | 99 | 276 | 4.0 | 5.0 | 0.00 | 0.00 | 0.00 | 41 | 1014.4 |
| 20260901202529 | 99 | 254 | 1.0 | 5.0 | 0.00 | 0.00 | 0.00 | 43 | 1014.3 |
| 20260901202025 | 97 | 115 | 1.0 | 3.0 | 0.00 | 0.00 | 0.00 | 44 | 1014.6 |
| 20260901201520 | 97 | 342 | 5.0 | 5.0 | 0.00 | 0.00 | 0.00 | 43 | 1014.5 |
| 20260901201014 | 96 | 84 | 3.0 | 6.0 | 0.00 | 0.00 | 0.00 | 44 | 1014.7 |
| 20260901200509 | 96 | 334 | 3.0 | 5.0 | 0.00 | 0.00 | 0.00 | 45 | 1014.9 |
| 20260901200008 | 97 | 268 | 3.0 | 4.0 | 0.00 | 0.00 | 0.00 | 42 | 1014.7 |
| 20260901195506 | 96 | 204 | 0.0 | 4.0 | 0.00 | 0.00 | 0.00 | 46 | 1015.3 |
| 20260901195006 | 96 | 242 | 2.0 | 5.0 | 0.00 | 0.00 | 0.00 | 46 | 1015.1 |
| 20260901194501 | 95 | 346 | 2.0 | 3.0 | 0.00 | 0.00 | 0.00 | 48 | 1015.3 |
| 20260901193956 | 95 | 100 | 5.0 | 5.0 | 0.00 | 0.00 | 0.00 | 49 | 1015.1 |
| 20260901193456 | 95 | 346 | 4.0 | 5.0 | 0.00 | 0.00 | 0.00 | 48 | 1015.2 |
| 20260901192956 | 96 | 351 | 3.0 | 4.0 | 0.00 | 0.00 | 0.00 | 48 | 1015.1 |
| 20260901192452 | 95 | 307 | 0.0 | 3.0 | 0.00 | 0.00 | 0.00 | 50 | 1015.5 |
| 20260901191948 | 95 | 6 | 0.0 | 3.0 | 0.00 | 0.00 | 0.00 | 51 | 1015.6 |
| 20260901191446 | 95 | 71 | 2.0 | 3.0 | 0.00 | 0.00 | 0.00 | 49 | 1015.2 |
| 20260901190939 | 95 | 96 | 1.0 | 2.0 | 0.00 | 0.00 | 0.00 | 50 | 1015.6 |
| 20260901190434 | 93 | 310 | 2.0 | 5.0 | 0.00 | 0.00 | 0.00 | 52 | 1015.5 |
| 20260901185932 | 93 | 261 | 2.0 | 3.0 | 0.00 | 0.00 | 0.00 | 50 | 1015.7 |
| 20260901185432 | 94 | 301 | 4.0 | 4.0 | 0.00 | 0.00 | 0.00 | 53 | 1015.9 |
| 20260901184926 | 92 | 254 | 3.0 | 5.0 | 0.00 | 0.00 | 0.00 | 52 | 1015.8 |
| 20260901184422 | 94 | 94 | 2.0 | 2.0 | 0.00 | 0.00 | 0.00 | 49 | 1015.8 |
| 20260901183917 | 95 | 286 | 4.0 | 4.0 | 0.00 | 0.00 | 0.00 | 49 | 1016.1 |
| 20260901183416 | 96 | 283 | 0.0 | 3.0 | 0.00 | 0.00 | 0.00 | 48 | 1016.0 |
| 20260901182912 | 96 | 222 | 0.0 | 4.0 | 0.00 | 0.00 | 0.00 | 48 | 1016.1 |
| 20260901182407 | 94 | 144 | 1.0 | 8.0 | 0.00 | 0.00 | 0.00 | 51 | 1016.4 |
| 20260901181902 | 95 | 77 | 3.0 | 3.0 | 0.00 | 0.00 | 0.00 | 51 | 1016.4 |
| 20260901181357 | 94 | 155 | 0.0 | 6.0 | 0.00 | 0.00 | 0.00 | 53 | 1016.4 |
| 20260901180856 | 94 | 77 | 2.0 | 4.0 | 0.00 | 0.00 | 0.00 | 51 | 1016.4 |
| 20260901180355 | 93 | 93 | 3.0 | 3.0 | 0.00 | 0.00 | 0.00 | 52 | 1016.3 |
| 20260901175853 | 95 | 170 | 2.0 | 3.0 | 0.00 | 0.00 | 0.00 | 51 | 1016.5 |
| 20260901175348 | 94 | 330 | 3.0 | 3.0 | 0.00 | 0.00 | 0.00 | 55 | 1016.7 |
| 20260901174844 | 93 | 135 | 2.0 | 3.0 | 0.00 | 0.00 | 0.00 | 54 | 1017.0 |
| 20260901174339 | 93 | 253 | 1.0 | 5.0 | 0.00 | 0.00 | 0.00 | 54 | 1016.7 |
| 20260901173835 | 93 | 269 | 1.0 | 3.0 | 0.00 | 0.00 | 0.00 | 55 | 1016.9 |
| 20260901173329 | 92 | 311 | 0.0 | 4.0 | 0.00 | 0.00 | 0.00 | 57 | 1017.1 |
| 20260901172826 | 92 | 77 | 2.0 | 5.0 | 0.00 | 0.00 | 0.00 | 56 | 1017.3 |
| 20260901172325 | 92 | 235 | 0.0 | 6.0 | 0.00 | 0.00 | 0.00 | 55 | 1017.4 |
| 20260901171823 | 93 | 97 | 2.0 | 3.0 | 0.00 | 0.00 | 0.00 | 55 | 1017.2 |
| 20260901171323 | 94 | 287 | 2.0 | 5.0 | 0.00 | 0.00 | 0.00 | 53 | 1017.1 |
| 20260901170822 | 91 | 253 | 4.0 | 5.0 | 0.00 | 0.00 | 0.00 | 56 | 1017.3 |
| 20260901170317 | 92 | 137 | 4.0 | 6.0 | 0.00 | 0.00 | 0.00 | 56 | 1017.4 |
| 20260901165816 | 91 | 200 | 0.0 | 3.0 | 0.00 | 0.00 | 0.00 | 56 | 1017.4 |
| 20260901165310 | 92 | 264 | 1.0 | 7.0 | 0.00 | 0.00 | 0.00 | 56 | 1017.4 |
| 20260901164807 | 93 | 147 | 2.0 | 7.0 | 0.00 | 0.00 | 0.00 | 55 | 1017.6 |
| 20260901164302 | 93 | 272 | 2.0 | 4.0 | 0.00 | 0.00 | 0.00 | 56 | 1017.6 |
| 20260901163757 | 92 | 80 | 0.0 | 5.0 | 0.00 | 0.00 | 0.00 | 56 | 1017.6 |
| 20260901163257 | 90 | 246 | 2.0 | 5.0 | 0.00 | 0.00 | 0.00 | 58 | 1017.8 |
| 20260901162752 | 92 | 85 | 4.0 | 5.0 | 0.00 | 0.00 | 0.00 | 55 | 1017.8 |
| 20260901162251 | 94 | 243 | 1.0 | 4.0 | 0.00 | 0.00 | 0.00 | 52 | 1017.8 |
| 20260901161750 | 93 | 303 | 2.0 | 3.0 | 0.00 | 0.00 | 0.00 | 56 | 1017.8 |
| 20260901161244 | 91 | 253 | 4.0 | 5.0 | 0.00 | 0.00 | 0.00 | 56 | 1018.0 |
| 20260901160741 | 91 | 131 | 2.0 | 3.0 | 0.00 | 0.00 | 0.00 | 59 | 1018.1 |
| 20260901160237 | 92 | 79 | 2.0 | 4.0 | 0.00 | 0.00 | 0.00 | 58 | 1017.8 |
| 20260901155735 | 91 | 274 | 3.0 | 3.0 | 0.00 | 0.00 | 0.00 | 60 | 1017.9 |